Location: Greenwich
(51.4790°N, 0.0090°E)
Time: 14:16:34
(UTC+01:00)

Altair - Pass Details

Date: 18 June 2025
Orbit: 1502 x 1682 km, 47.2° (Epoch: 19 July)

Event Time Altitude Azimuth Distance (km) Brightness Sun altitude
Rises 00:55:46 0° 231° (SW) 4,639 9.7 -15.1°
Reaches altitude 10° 00:58:52 10° 226° (SW) 3,671 9.1 -15.1°
Maximum altitude 01:07:40 51° 154° (SSE) 1,878 7.6 -15.1°
Drops below altitude 10° 01:16:47 10° 83° (E) 3,798 9.7 -15.0°
Sets 01:20:02 0° 78° (ENE) 4,810 10.3 -15.0°
